Weather reports worldwide

Advertisment
Kempten, Germany (10946): temperature & dewpoint: 18.03.2019 17:00:00 - 24.03.2019 17:00:00 (CET)Kempten, Germany (10946): temperature 5cm & temperature -5cm: 18.03.2019 17:00:00 - 24.03.2019 17:00:00 (CET)Kempten, Germany (10946): temperature -20cm & temperature -100cm: 18.03.2019 17:00:00 - 24.03.2019 17:00:00 (CET)Kempten, Germany (10946): wind speed & gusts: 18.03.2019 17:00:00 - 24.03.2019 17:00:00 (CET)Kempten, Germany (10946): wind direction: 18.03.2019 17:00:00 - 24.03.2019 17:00:00 (CET)Kempten, Germany (10946): reduced air pressure: 18.03.2019 17:00:00 - 24.03.2019 17:00:00 (CET)Kempten, Germany (10946): visibility: 18.03.2019 17:00:00 - 24.03.2019 17:00:00 (CET)Kempten, Germany (10946): sunshine duration: 18.03.2019 17:00:00 - 24.03.2019 17:00:00 (CET)Kempten, Germany (10946): precipitation: 18.03.2019 17:00:00 - 24.03.2019 17:00:00 (CET)
Date & Time tt [°C] td [°C] tt 5cm [°C] tt -5cm [°C] tt -20cm [°C] tt -100cm [°C] ff [km/h] ff [kn] fx [km/h] fx [kn] dd ppp [hPa] vv [km] sd [min] rr [mm]
24.03.2019 17:00:00 15,7 -1,3 16,8 17,2 11,6 5,8 16 9 30 16 W 1019,2 10 60 0,0
24.03.2019 16:00:00 16,4 -0,1 19,8 19,3 11,1 5,8 12 7 26 14 W 1019,1 8 60 0,0
24.03.2019 15:00:00 17,1 0,3 20,7 20,4 10,3 5,8 15 8 27 15 W 1019,1 13 60 0,0
24.03.2019 14:00:00 16,8 0,0 21,5 20,9 9,2 5,8 11 6 25 13 SW 1019,5 6 60 0,0
24.03.2019 13:00:00 16,0 1,2 20,9 20,3 8,1 5,8 8 4 13 7 NW 1020,4 13 60 0,0
24.03.2019 12:00:00 14,8 1,8 18,4 18,1 7,0 5,8 4 2 18 10 NW 1021,3 20 60 0,0
24.03.2019 11:00:00 12,6 1,1 15,9 14,7 6,1 5,8 7 4 13 7 NW 1022,6 15 60 0,0
24.03.2019 10:00:00 11,4 1,5 13,2 10,7 5,4 5,8 2 1 8 5 ENE 1023,1 12 60 0,0
24.03.2019 09:00:00 6,7 0,5 8,5 5,9 5,3 5,8 4 2 12 6 S 1024,9 12 60 0,0
24.03.2019 08:00:00 3,9 -0,4 2,8 2,3 5,4 5,8 7 4 17 9 S 1026,1 14 60 0,0
24.03.2019 07:00:00 1,1 -0,8 -1,1 1,2 5,7 5,8 9 5 14 8 SE 1027,1 8 4 0,0
24.03.2019 06:00:00 0,2 -1,2 -2,0 1,3 6,1 5,8 8 4 11 6 ESE 1027,4 7 0 0,0
24.03.2019 05:00:00 0,3 -1,2 -1,5 1,7 6,4 5,7 8 4 14 7 ESE 1027,3 6 0 0,0
24.03.2019 04:00:00 1,5 -0,5 -1,0 2,2 6,8 5,7 8 4 12 7 ESE 1027,1 8 0 0,0
24.03.2019 03:00:00 1,1 -0,6 -0,8 2,7 7,2 5,7 8 4 12 6 ESE 1027,6 7 0 0,0
24.03.2019 02:00:00 1,4 -0,6 -0,1 3,2 7,7 5,7 8 5 10 6 ESE 1028,1 7 0 0,0
24.03.2019 01:00:00 1,9 -0,2 0,0 3,9 8,1 5,7 8 4 11 6 ESE 1028,3 8 0 0,0
24.03.2019 00:00:00 3,4 0,7 0,4 4,7 8,6 5,7 3 2 11 6 E 1028,4 10 0 0,0
23.03.2019 23:00:00 4,2 1,1 1,5 5,6 9,2 5,7 4 2 10 5 ESE 1028,5 10 0 0,0
23.03.2019 22:00:00 5,7 1,7 3,7 6,6 9,7 5,7 7 4 9 5 ESE 1028,4 9 0 0,0
23.03.2019 21:00:00 5,8 2,1 3,7 7,8 10,3 5,7 4 2 7 4 ESE 1028,3 8 0 0,0
23.03.2019 20:00:00 8,7 2,7 6,0 9,5 10,7 5,7 5 3 9 5 ESE 1027,0 10 0 0,0
23.03.2019 19:00:00 12,4 2,6 7,3 11,8 11,1 5,7 4 2 10 5 ENE 1025,3 6 11 0,0
23.03.2019 18:00:00 16,0 -0,6 14,7 14,7 11,1 5,7 5 3 13 7 N 1024,2 18 60 0,0
23.03.2019 17:00:00 17,1 -3,6 18,6 17,3 10,8 5,7 6 4 17 9 NNW 1023,8 10 60 0,0
23.03.2019 16:00:00 17,5 -2,1 20,5 18,9 10,1 5,7 8 4 19 10 NW 1023,9 11 60 0,0
23.03.2019 15:00:00 16,9 -1,5 20,6 20,1 9,2 5,7 9 5 21 11 NNW 1024,3 3,1 60 0,0
23.03.2019 14:00:00 17,5 0,3 22,0 20,0 8,2 5,7 6 4 17 9 NNW 1024,4 9 60 0,0
23.03.2019 13:00:00 15,9 -0,7 20,1 18,8 7,0 5,7 7 4 13 7 N 1025,3 10 60 0,0
23.03.2019 12:00:00 15,1 -0,4 18,1 16,7 5,9 5,7 6 4 15 8 N 1026,2 13 60 0,0
23.03.2019 11:00:00 13,8 -1,1 16,1 14,1 4,9 5,7 6 3 10 5 N 1027,0 17 60 0,0
23.03.2019 10:00:00 11,1 -1,5 12,9 9,9 4,3 5,6 3 1 10 5 SSE 1028,0 28 60 0,0
23.03.2019 09:00:00 6,9 -1,8 8,1 4,7 4,1 5,6 6 3 14 8 S 1029,5 21 60 0,0
23.03.2019 08:00:00 4,7 -2,6 3,4 0,6 4,3 5,6 8 4 16 9 SSE 1030,0 25 60 0,0
23.03.2019 07:00:00 2,4 -2,9 -1,3 0,5 4,5 5,6 9 5 19 11 SSE 1030,7 36 2 0,0
23.03.2019 06:00:00 1,4 -2,5 -1,8 0,7 4,8 5,6 9 5 17 9 SE 1030,9 24 0 0,0
23.03.2019 05:00:00 1,5 -1,8 -1,7 0,8 5,1 5,6 9 5 19 11 SSE 1030,7 20 0 0,0
23.03.2019 04:00:00 0,8 -1,7 -1,9 1,1 5,4 5,6 7 4 11 6 SE 1031,1 15 0 0,0
23.03.2019 03:00:00 0,8 -1,3 -2,0 1,4 5,8 5,6 5 3 11 6 SE 1031,2 12 0 0,0
23.03.2019 02:00:00 2,9 -0,7 -1,6 1,8 6,2 5,6 4 2 14 8 SSE 1030,7 20 0 0,0
23.03.2019 01:00:00 2,5 -0,7 -1,0 2,3 6,6 5,6 7 4 16 9 ESE 1030,8 14 0 0,0
23.03.2019 00:00:00 3,0 -0,4 -0,1 3,0 7,1 5,6 9 5 13 7 SE 1030,8 14 0 0,0
22.03.2019 23:00:00 4,7 0,2 0,2 3,9 7,6 5,6 6 3 14 7 SSE 1030,3 16 0 0,0
22.03.2019 22:00:00 4,2 1,0 1,1 4,8 8,1 5,6 10 5 12 7 ESE 1030,4 11 0 0,0
22.03.2019 21:00:00 5,1 1,6 2,2 6,1 8,6 5,6 8 4 10 6 ESE 1030,0 9 0 0,0
22.03.2019 20:00:00 7,3 2,4 4,2 7,9 9,1 5,6 5 3 9 5 E 1029,4 10 0 0,0
22.03.2019 19:00:00 10,3 1,8 7,7 10,0 9,3 5,6 4 2 10 5 E 1028,4 13 1 0,0
22.03.2019 18:00:00 15,0 -2,5 14,7 12,8 9,3 5,6 2 1 13 7 SW 1027,0 20 60 0,0
22.03.2019 17:00:00 15,5 -2,0 16,6 14,6 9,0 5,6 8 4 14 7 WNW 1026,9 12 60 0,0
22.03.2019 16:00:00 16,0 -1,5 18,8 16,6 8,3 5,6 8 4 15 8 NW 1026,8 18 60 0,0
22.03.2019 15:00:00 15,2 -1,1 18,6 17,0 7,5 5,6 6 3 16 9 NNW 1027,4 3,2 60 0,0
22.03.2019 14:00:00 14,5 -0,9 17,5 16,4 6,5 5,6 8 4 18 10 N 1027,8 15 60 0,0
22.03.2019 13:00:00 13,8 -0,4 17,3 16,2 5,4 5,6 8 4 16 9 N 1028,1 18 60 0,0
22.03.2019 12:00:00 12,1 -0,5 15,1 14,8 4,2 5,6 5 3 13 7 NNE 1029,0 16 60 0,0
22.03.2019 11:00:00 10,4 -0,9 12,7 11,5 3,2 5,6 3 1 10 5 N 1029,8 18 60 0,0
22.03.2019 10:00:00 7,7 -1,3 8,7 5,6 2,9 5,6 3 1 6 4 E 1030,8 25 60 0,0
22.03.2019 09:00:00 4,4 -1,5 4,0 0,0 3,0 5,6 4 2 12 7 SSE 1032,1 26 60 0,0
22.03.2019 08:00:00 1,6 -2,3 0,0 -0,2 3,2 5,6 5 3 10 5 S 1032,9 24 60 0,0
22.03.2019 07:00:00 -2,4 -3,8 -4,3 -0,3 3,4 5,6 2 1 10 5 SSE 1034,1 10 1 0,0
22.03.2019 06:00:00 -2,8 -4,3 -4,0 -0,2 3,6 5,6 8 5 12 7 ESE 1033,8 9 0 0,0
22.03.2019 05:00:00 -2,0 -3,2 -3,7 0,1 3,8 5,6 7 4 11 6 ESE 1033,1 11 0 0,0
22.03.2019 04:00:00 -2,1 -3,5 -3,6 0,3 4,1 5,6 7 4 9 5 ESE 1033,3 10 0 0,0
22.03.2019 03:00:00 -1,6 -3,4 -3,0 0,5 4,3 5,6 7 4 11 6 ESE 1033,2 12 0 0,0
22.03.2019 02:00:00 -1,5 -3,3 -3,1 0,8 4,6 5,6 6 4 9 5 E 1033,2 9 0 0,0
22.03.2019 01:00:00 -0,6 -2,8 -2,3 1,0 5,0 5,6 7 4 8 5 ESE 1033,4 12 0 0,0
22.03.2019 00:00:00 -0,4 -2,7 -2,3 1,2 5,4 5,6 5 3 8 4 ESE 1033,6 10 0 0,0
21.03.2019 23:00:00 0,3 -2,5 -1,4 1,5 5,8 5,6 5 3 9 5 E 1033,5 10 0 0,0
21.03.2019 22:00:00 1,2 -1,8 -1,5 2,4 6,3 5,6 0 0 7 4 N 1033,3 14 0 0,0
21.03.2019 21:00:00 2,6 -1,3 -1,1 3,5 6,8 5,6 2 1 8 4 N 1033,1 15 0 0,0
21.03.2019 20:00:00 5,5 -1,2 0,7 4,8 7,2 5,6 5 3 10 5 NNE 1032,1 18 0 0,0
21.03.2019 19:00:00 8,2 -1,6 3,7 6,6 7,5 5,6 4 2 12 6 NNE 1030,8 22 10 0,0
21.03.2019 18:00:00 10,5 -2,8 9,8 8,9 7,6 5,6 8 4 21 11 ENE 1029,6 27 60 0,0
21.03.2019 17:00:00 11,6 -3,7 12,2 11,0 7,3 5,6 10 6 23 12 ENE 1029,0 7 60 0,0
21.03.2019 16:00:00 12,0 -4,6 14,5 12,5 6,9 5,6 10 5 24 13 E 1029,0 3,0 60 0,0
21.03.2019 15:00:00 11,8 -4,6 14,2 13,3 6,1 5,6 13 7 27 14 ENE 1029,2 4,3 60 0,0
21.03.2019 14:00:00 10,4 -5,5 13,4 13,4 5,3 5,6 13 7 27 15 ENE 1030,3 7 60 0,0
21.03.2019 13:00:00 9,7 -4,4 12,4 12,7 4,3 5,6 13 7 26 14 NE 1030,8 10 60 0,0
21.03.2019 12:00:00 8,8 -3,9 11,3 11,1 3,3 5,6 11 6 27 15 ENE 1031,5 15 60 0,0
21.03.2019 11:00:00 7,0 -4,1 9,0 7,5 2,7 5,6 11 6 25 13 NE 1032,2 17 60 0,0
21.03.2019 10:00:00 4,8 -3,8 5,9 1,3 2,7 5,6 9 5 21 11 ENE 1033,1 22 60 0,0
21.03.2019 09:00:00 2,5 -4,0 2,8 -0,1 2,8 5,6 7 4 15 8 NE 1033,6 26 60 0,0
21.03.2019 08:00:00 0,5 -3,9 -1,4 -0,2 3,0 5,6 0 0 6 3 N 1033,9 19 60 0,0
21.03.2019 07:00:00 -2,3 -4,7 -4,9 -0,3 3,2 5,6 4 2 10 5 N 1034,9 17 0 0,0
21.03.2019 06:00:00 -3,4 -5,2 -5,5 -0,1 3,3 5,6 3 1 9 5 NNW 1035,4 14 0 0,0
21.03.2019 05:00:00 -3,6 -5,5 -5,4 0,2 3,5 5,6 3 2 6 3 N 1035,8 11 0 0,0
21.03.2019 04:00:00 -2,4 -5,0 -4,3 0,4 3,7 5,6 2 1 7 4 ESE 1035,3 16 0 0,0
21.03.2019 03:00:00 -0,7 -4,9 -4,2 0,6 3,9 5,6 5 3 11 6 N 1035,1 21 0 0,0
21.03.2019 02:00:00 0,3 -5,0 -2,2 0,7 4,2 5,6 8 5 13 7 NE 1035,3 23 0 0,0
21.03.2019 01:00:00 0,4 -4,6 -2,4 0,8 4,5 5,6 8 4 13 7 ENE 1035,5 25 0 0,0
21.03.2019 00:00:00 -0,2 -4,6 -3,2 1,0 4,8 5,6 3 2 9 5 N 1036,0 20 0 0,0
20.03.2019 23:00:00 0,1 -4,1 -3,2 1,2 5,2 5,6 3 1 11 6 NNE 1036,5 19 0 0,0
20.03.2019 22:00:00 -0,6 -3,6 -3,2 1,4 5,7 5,6 0 0 4 2 N 1036,6 18 0 0,0
20.03.2019 21:00:00 0,5 -3,1 -2,4 2,3 6,2 5,6 0 0 10 5 N 1036,1 12 0 0,0
20.03.2019 20:00:00 3,0 -3,7 0,4 3,5 6,7 5,6 6 3 10 6 NE 1035,2 19 0 0,0
20.03.2019 19:00:00 4,7 -4,0 1,4 5,2 7,1 5,6 4 2 13 7 NE 1034,3 33 9 0,0
20.03.2019 18:00:00 6,6 -4,3 6,2 7,7 7,3 5,6 8 5 20 11 ENE 1032,7 28 60 0,0
20.03.2019 17:00:00 7,8 -4,8 9,3 10,0 7,1 5,6 8 5 24 13 NE 1032,2 19 60 0,0
20.03.2019 16:00:00 8,1 -5,1 10,8 11,9 6,6 5,6 9 5 19 10 NE 1032,1 16 60 0,0
20.03.2019 15:00:00 7,5 -4,8 10,9 12,8 5,8 5,6 9 5 23 13 ENE 1032,7 7 60 0,0
20.03.2019 14:00:00 7,6 -5,2 11,5 13,1 4,9 5,6 10 6 25 13 E 1033,1 13 60 0,0
20.03.2019 13:00:00 7,4 -4,6 11,2 11,9 3,8 5,6 10 5 24 13 N 1033,5 14 60 0,0
20.03.2019 12:00:00 5,9 -5,7 8,8 9,8 2,9 5,6 8 4 20 11 ENE 1033,8 20 60 0,0
20.03.2019 11:00:00 5,4 -5,4 7,3 4,9 2,6 5,6 10 5 21 11 NE 1033,9 19 60 0,0
20.03.2019 10:00:00 3,6 -4,0 3,1 0,2 2,6 5,6 2 1 9 5 SSE 1034,5 23 60 0,0
20.03.2019 09:00:00 0,6 -3,8 0,0 -0,1 2,8 5,6 5 3 10 5 S 1035,4 16 60 0,0
20.03.2019 08:00:00 -1,0 -4,3 -1,6 -0,2 2,9 5,6 4 2 10 5 SE 1035,7 23 57 0,0
20.03.2019 07:00:00 -4,4 -5,6 -5,1 -0,3 3,0 5,6 6 3 10 5 ESE 1036,2 11 0 0,0
20.03.2019 06:00:00 -4,1 -5,3 -5,0 -0,1 3,2 5,6 8 4 11 6 ESE 1035,3 11 0 0,0
20.03.2019 05:00:00 -3,8 -4,9 -5,3 0,1 3,4 5,6 5 3 11 6 ESE 1034,9 11 0 0,0
20.03.2019 04:00:00 -3,8 -4,8 -4,6 0,3 3,5 5,6 8 4 11 6 ESE 1035,0 10 0 0,0
20.03.2019 03:00:00 -3,7 -4,7 -4,3 0,5 3,7 5,6 6 4 9 5 E 1035,2 9 0 0,0
20.03.2019 02:00:00 -2,9 -3,9 -3,8 0,6 3,9 5,6 6 4 11 6 ESE 1034,9 11 0 0,0
20.03.2019 01:00:00 -3,0 -4,1 -3,9 0,7 4,2 5,6 6 3 9 5 E 1034,8 11 0 0,0
20.03.2019 00:00:00 -2,5 -3,8 -3,1 0,8 4,5 5,6 8 4 10 5 ESE 1034,3 11 0 0,0
19.03.2019 23:00:00 -2,1 -3,4 -3,1 0,9 4,9 5,6 5 3 9 5 ESE 1033,8 11 0 0,0
19.03.2019 22:00:00 -1,4 -3,0 -2,7 1,1 5,3 5,6 4 2 7 4 ESE 1033,1 12 0 0,0
19.03.2019 21:00:00 -0,6 -2,5 -2,8 1,6 5,8 5,6 2 1 9 5 ENE 1032,5 17 0 0,0
19.03.2019 20:00:00 0,5 -2,1 -1,5 2,8 6,3 5,6 4 2 9 5 E 1031,6 22 0 0,0
19.03.2019 19:00:00 2,4 -1,2 -0,2 4,6 6,6 5,6 4 2 5 3 E 1030,3 17 0 0,0
19.03.2019 18:00:00 4,5 -2,3 4,0 6,3 6,8 5,6 3 2 9 5 SSE 1028,8 29 2 0,0
19.03.2019 17:00:00 4,6 -2,7 4,8 7,3 6,9 5,6 4 2 11 6 SE 1028,3 33 0 0,0
19.03.2019 16:00:00 4,9 -2,1 5,4 8,1 6,9 5,6 4 2 11 6 NNE 1027,8 31 0 0,0
19.03.2019 15:00:00 5,1 -4,5 6,8 11,2 6,5 5,6 4 2 13 7 NE 1027,4 42 14 0,0
19.03.2019 14:00:00 5,8 -5,1 10,4 12,3 5,8 5,5 7 4 18 10 ESE 1027,2 33 34 0,0
19.03.2019 13:00:00 4,5 -3,4 8,2 9,9 5,3 5,5 6 4 14 7 SE 1027,7 36 3 0,0
19.03.2019 12:00:00 4,2 -2,7 6,9 11,7 4,5 5,5 6 3 14 7 ENE 1027,7 26 39 0,0
19.03.2019 11:00:00 3,2 -2,1 5,5 6,5 4,1 5,5 6 3 11 6 ESE 1028,0 28 6 0,0
19.03.2019 10:00:00 3,0 -2,2 7,4 8,7 3,6 5,5 8 5 15 8 S 1027,7 33 33 0,0
19.03.2019 09:00:00 1,4 -1,2 3,2 3,5 3,4 5,5 5 3 11 6 S 1027,9 26 0 0,0
19.03.2019 08:00:00 0,2 -1,2 0,5 1,7 3,5 5,5 5 3 10 5 SSE 1028,0 20 0 0,0
19.03.2019 07:00:00 0,0 -1,4 -0,3 1,0 3,6 5,5 5 3 15 8 S 1027,3 18 0 0,0
19.03.2019 06:00:00 0,3 -1,5 -0,2 1,2 3,7 5,5 7 4 13 7 S 1026,6 23 0 0,0
19.03.2019 05:00:00 0,5 -1,1 -0,2 1,1 3,9 5,5 6 3 11 6 SSW 1026,3 27 0 0,0
19.03.2019 04:00:00 0,3 -1,0 -0,1 0,9 4,1 5,5 5 3 11 6 SSE 1026,2 18 0 0,0
19.03.2019 03:00:00 0,0 -1,0 -0,5 0,9 4,4 5,5 5 3 13 7 S 1026,2 13 0 0,0
19.03.2019 02:00:00 -0,9 -1,6 -2,6 0,9 4,7 5,5 5 3 9 5 SSE 1026,6 9 0 0,0
19.03.2019 01:00:00 0,1 -0,9 -2,1 1,6 5,0 5,5 4 2 8 4 ESE 1026,2 12 0 0,0
19.03.2019 00:00:00 1,4 -0,6 0,5 2,7 5,2 5,5 7 4 14 7 SSW 1025,7 27 0 0,0
18.03.2019 23:00:00 1,3 -0,1 1,0 3,1 5,5 5,5 4 2 12 7 S 1025,6 25 0 0,0
18.03.2019 22:00:00 1,1 0,0 1,0 3,3 5,7 5,5 5 3 15 8 SSE 1025,5 21 0 0,0
18.03.2019 21:00:00 1,7 -0,3 1,5 3,8 6,0 5,5 7 4 16 9 W 1025,0 29 0 0,0
18.03.2019 20:00:00 1,6 -0,4 0,7 4,2 6,4 5,5 0 0 17 9 N 1024,1 25 0 0,0
18.03.2019 19:00:00 2,9 -1,7 2,7 5,1 6,7 5,5 5 3 17 9 SW 1023,3 60 0 0,0
18.03.2019 18:00:00 3,5 -2,1 2,7 6,8 6,7 5,5 9 5 19 11 SW 1022,2 70 30 0,0
18.03.2019 17:00:00 3,3 -0,3 6,0 8,6 6,6 5,5 9 5 27 15 NW 1022,1 22 14 0,0

tt = temperature
td = dewpoint
tt 5cm = temperature 5cm
tt -5cm = temperature -5cm
tt -20cm = temperature -20cm
tt -100cm = temperature -100cm
ff = wind speed
fx = gusts
dd = wind direction
ppp = reduced air pressure
vv = visibility
sd = sunshine duration
rr = precipitation

Next stations